Date,TemperatureHighF,TemperatureAvgF,TemperatureLowF,DewpointHighF,DewpointAvgF,DewpointLowF,HumidityHigh,HumidityAvg,HumidityLow,PressureMaxIn,PressureMinIn,WindSpeedMaxMPH,WindSpeedAvgMPH,GustSpeedMaxMPH,PrecipitationSumIn
2013-1-1,47.0,45.7,43.0,42.0,39.8,36.0,82,78,74,30.04,29.72,0,-999,0,0.00
2013-1-2,48.0,46.7,45.0,45.0,42.4,39.0,90,85,78,30.12,30.08,0,-999,0,0.00
2013-1-4,54.0,50.4,48.0,50.0,48.2,46.0,100,92,75,30.58,30.42,0,-999,0,0.00
2013-1-5,55.0,49.9,45.0,51.0,48.4,45.0,100,95,75,30.49,30.34,0,-999,0,0.00
2013-1-6,50.0,48.4,47.0,49.0,48.0,46.0,100,98,96,30.47,30.40,0,-999,0,0.00
2013-1-9,47.0,44.9,41.0,43.0,39.9,38.0,100,83,74,30.23,30.09,0,-999,0,0.00
2013-1-10,48.0,44.0,38.0,45.0,40.6,35.0,96,87,75,30.08,29.95,0,-999,0,0.00
2013-1-11,47.0,44.9,41.0,47.0,41.2,37.0,100,87,71,30.07,29.83,0,-999,0,0.00
2013-1-12,45.0,42.5,40.0,41.0,35.0,31.0,88,74,63,30.08,29.85,0,-999,0,0.00
2013-1-13,43.0,43.0,43.0,32.0,31.6,31.0,64,64,63,30.08,30.08,0,-999,0,0.00
2013-1-14,44.0,42.5,40.0,38.0,35.6,34.0,88,76,66,29.91,29.70,0,-999,0,0.00
2013-1-15,44.0,39.9,36.0,38.0,35.3,34.0,95,83,74,29.93,29.76,0,-999,0,0.00
2013-1-16,43.0,43.0,43.0,37.0,36.5,36.0,78,78,77,29.76,29.75,0,-999,0,0.00
2013-1-19,39.0,37.2,35.0,31.0,29.7,28.0,78,74,67,29.56,29.50,0,-999,0,0.00
2013-1-21,42.0,39.4,36.0,38.0,33.6,29.0,93,79,62,29.37,29.34,0,-999,0,0.00
2013-1-22,42.0,39.2,36.0,38.0,36.1,35.0,93,87,76,29.62,29.35,0,-999,0,0.00
2013-1-23,40.0,38.8,35.0,36.0,34.1,32.0,91,83,77,29.78,29.70,0,-999,0,0.00
2013-1-24,45.0,41.7,39.0,39.0,35.1,30.0,86,77,69,30.07,29.86,0,-999,0,0.00
2013-1-25,46.0,41.5,36.0,43.0,38.7,33.0,92,89,85,30.01,29.79,0,-999,0,0.00
2013-1-27,45.0,44.1,44.0,36.0,34.3,33.0,72,67,64,29.31,29.28,0,-999,0,0.00
2013-1-28,52.0,48.0,43.0,51.0,42.6,33.0,100,82,66,29.70,29.36,0,-999,0,0.00
2013-1-29,51.0,50.3,49.0,49.0,46.9,46.0,97,89,83,29.58,29.54,0,-999,0,0.00
2013-1-30,51.0,48.8,46.0,46.0,40.9,37.0,97,74,61,29.92,29.61,0,-999,0,0.00
2013-1-31,51.0,48.7,46.0,49.0,43.9,40.0,98,83,70,29.90,29.61,0,-999,0,0.00
2013-2-1,47.0,42.7,39.0,40.0,37.0,33.0,93,81,73,29.83,29.41,0,-999,0,0.00
2013-2-2,43.0,40.7,38.0,35.0,31.8,29.0,79,70,57,30.26,29.86,0,-999,0,0.00
2013-2-3,49.0,46.9,40.0,48.0,44.5,34.0,99,91,80,30.12,29.72,0,-999,0,0.00
2013-2-4,49.0,42.5,35.0,48.0,35.6,31.0,96,77,58,29.79,29.48,0,-999,0,0.00
2013-2-5,45.0,39.7,33.0,44.0,36.0,31.0,100,86,74,29.61,29.16,0,-999,0,0.00
2013-2-6,43.0,41.9,40.0,37.0,32.6,29.0,78,69,60,30.23,29.66,0,-999,0,0.00
2013-2-7,42.0,39.9,37.0,40.0,36.3,32.0,97,86,74,30.26,30.03,0,-999,0,0.00
2013-2-8,46.0,43.5,41.0,45.0,39.2,35.0,100,85,71,30.27,30.10,0,-999,0,0.00
2013-2-9,46.0,43.6,39.0,46.0,43.6,39.0,100,100,97,30.15,29.77,0,-999,0,0.00
2013-2-10,44.0,40.9,38.0,44.0,40.3,36.0,100,98,91,29.73,29.21,0,-999,0,0.00
2013-2-11,41.0,39.2,37.0,36.0,30.2,27.0,90,70,62,29.88,29.39,0,-999,0,0.00
2013-2-12,40.0,39.0,38.0,31.0,30.0,28.0,75,69,65,30.03,29.98,0,-999,0,0.00
2013-2-18,44.0,42.0,40.0,40.0,37.0,32.0,90,82,73,30.13,30.02,0,-999,0,0.00
2013-2-19,45.0,41.3,38.0,43.0,38.1,33.0,100,88,72,30.14,30.04,0,-999,0,0.00
2013-2-20,42.0,40.5,39.0,39.0,37.0,32.0,96,87,76,30.21,30.06,0,-999,0,0.00
2013-2-21,38.0,36.7,33.0,31.0,28.1,25.0,82,70,62,30.27,30.15,0,-999,0,0.00
2013-2-22,38.0,36.1,33.0,27.0,24.3,22.0,69,62,54,30.31,30.19,0,-999,0,0.00
2013-2-23,39.0,36.5,34.0,31.0,25.4,22.0,83,63,51,30.39,30.27,0,-999,0,0.00
2013-2-24,42.0,39.4,37.0,34.0,30.4,26.0,79,70,57,30.48,30.38,0,-999,0,0.00
2013-2-25,44.0,39.8,34.0,38.0,33.1,30.0,89,76,60,30.62,30.49,0,-999,0,0.00
2013-2-26,44.0,39.7,36.0,35.0,32.6,28.0,82,75,68,30.65,30.58,0,-999,0,0.00
2013-2-27,42.0,41.5,41.0,37.0,37.0,37.0,86,84,83,30.71,30.70,0,-999,0,0.00
2013-2-28,47.0,45.2,40.0,45.0,42.4,40.0,99,90,77,30.59,30.50,0,-999,0,0.00
2013-3-1,47.0,44.1,38.0,45.0,39.5,34.0,100,84,67,30.56,30.50,0,-999,0,0.00
2013-3-2,47.0,45.5,42.0,45.0,43.0,39.0,100,91,76,30.41,30.26,0,-999,0,0.00
2013-3-3,46.0,45.2,44.0,46.0,42.4,38.0,100,90,74,30.29,30.16,0,-999,0,0.00
2013-3-4,42.0,40.2,39.0,37.0,35.2,34.0,84,82,80,29.93,29.83,0,-999,0,0.00
2013-3-5,46.0,41.2,37.0,41.0,38.3,35.0,96,89,75,29.71,29.62,0,-999,0,0.00
2013-3-6,46.0,45.7,45.0,45.0,43.4,42.0,100,92,85,29.55,29.49,0,-999,0,0.00
2013-3-7,48.0,46.0,44.0,48.0,46.0,44.0,100,100,98,29.49,29.28,0,-999,0,0.00
2013-3-8,46.0,45.8,45.0,46.0,45.8,45.0,100,100,100,29.31,29.29,0,-999,0,0.00
2013-3-10,39.0,37.8,36.0,31.0,24.8,17.0,74,59,46,29.92,29.78,0,-999,0,0.00
2013-3-11,35.0,33.2,31.0,28.0,23.2,18.0,81,67,51,30.06,29.85,0,-999,0,0.00
2013-3-12,41.0,37.5,32.0,35.0,26.1,19.0,78,63,46,30.11,29.95,0,-999,0,0.00
2013-3-13,44.0,39.8,34.0,37.0,34.2,31.0,91,80,67,30.06,29.87,0,-999,0,0.00
2013-3-14,46.0,39.8,35.0,40.0,33.5,29.0,81,78,73,30.08,29.89,0,-999,0,0.00
2013-3-15,47.0,44.3,42.0,43.0,38.9,35.0,90,81,71,29.75,29.37,0,-999,0,0.00
2013-3-16,44.0,41.3,39.0,41.0,39.0,37.0,97,91,79,29.36,29.27,0,-999,0,0.00
2013-3-17,41.0,40.5,40.0,40.0,39.5,39.0,95,95,95,29.18,29.17,0,-999,0,0.00
2013-3-18,44.0,40.8,39.0,40.0,37.8,36.0,97,89,78,29.44,29.21,0,-999,0,0.00
2013-3-19,42.0,38.9,35.0,41.0,34.9,32.0,97,85,74,29.53,29.38,0,-999,0,0.00
2013-3-20,44.0,40.2,36.0,40.0,37.6,36.0,100,90,76,29.90,29.50,0,-999,0,0.00
2013-3-21,43.0,41.1,38.0,37.0,34.0,31.0,85,76,65,29.96,29.64,0,-999,0,0.00
2013-3-22,43.0,39.7,37.0,42.0,39.1,35.0,100,97,93,29.69,29.48,0,-999,0,0.00
2013-3-23,41.0,37.7,33.0,39.0,34.9,30.0,100,89,78,29.95,29.69,0,-999,0,0.00
2013-3-24,37.0,36.2,35.0,33.0,28.5,24.0,83,73,61,30.09,29.92,0,-999,0,0.00
2013-3-25,39.0,37.0,35.0,28.0,25.5,22.0,68,62,57,30.12,30.00,0,-999,0,0.00
2013-3-26,38.0,36.4,35.0,31.0,26.4,23.0,80,66,57,30.11,29.98,0,-999,0,0.00
2013-3-27,38.0,35.9,34.0,31.0,28.9,22.0,84,75,55,30.03,29.95,0,-999,0,0.00
2013-3-28,41.0,37.1,34.0,29.0,26.5,24.0,78,65,53,30.01,29.94,0,-999,0,0.00
2013-3-29,41.0,37.0,31.0,26.0,23.3,20.0,71,57,51,29.96,29.82,0,-999,0,0.00
2013-3-30,40.0,38.0,34.0,32.0,26.4,22.0,76,63,47,30.00,29.86,0,-999,0,0.00
2013-3-31,42.0,38.8,32.0,30.0,24.8,-99.9,77,61,46,29.99,29.83,0,-999,0,0.00
2013-4-1,41.0,38.2,33.0,31.0,26.4,22.0,73,62,52,29.97,29.75,0,-999,0,0.00
2013-4-2,43.0,39.7,33.0,34.0,28.4,25.0,74,63,48,30.16,29.94,0,-999,0,0.00
2013-4-3,45.0,40.8,34.0,33.0,30.8,28.0,88,68,55,30.24,30.11,0,-999,0,0.00
2013-4-4,44.0,41.5,38.0,34.0,30.8,26.0,76,65,56,30.22,30.09,0,-999,0,0.00
2013-4-5,44.0,41.7,40.0,36.0,33.0,29.0,81,71,57,30.27,30.14,0,-999,0,0.00
2013-4-6,46.0,41.5,35.0,35.0,31.5,29.0,85,68,54,30.34,30.21,0,-999,0,0.00
2013-4-7,45.0,41.7,35.0,38.0,33.9,30.0,91,74,60,30.24,29.85,0,-999,0,0.00
2013-4-8,46.0,42.7,38.0,40.0,34.5,30.0,86,73,56,29.82,29.53,0,-999,0,0.00
2013-4-9,45.0,41.4,37.0,39.0,35.6,32.0,85,80,64,29.62,29.43,0,-999,0,0.00
2013-4-10,47.0,43.7,39.0,46.0,41.2,36.0,100,90,81,29.65,29.49,0,-999,0,0.00
2013-4-11,47.0,44.6,42.0,47.0,44.0,39.0,100,97,89,29.48,29.24,0,-999,0,0.00
2013-4-12,52.0,46.1,44.0,45.0,43.8,41.0,100,92,66,29.69,29.29,0,-999,0,0.00
2013-4-13,50.0,45.6,43.0,50.0,45.6,43.0,100,99,97,29.75,29.43,0,-999,0,0.00
2013-4-14,60.0,52.0,46.0,56.0,49.5,46.0,100,92,60,29.64,29.35,0,-999,0,0.00
2013-4-15,61.0,51.1,47.0,49.0,46.5,37.0,100,87,40,29.85,29.49,0,-999,0,0.00
2013-4-16,58.0,50.6,47.0,50.0,42.8,27.0,100,79,33,29.94,29.52,0,-999,0,0.00
2013-4-17,61.0,50.2,46.0,54.0,46.8,35.0,100,89,54,29.91,29.26,0,-999,0,0.00
2013-4-18,52.0,48.6,46.0,45.0,43.5,39.0,94,83,61,30.02,29.40,0,-999,0,0.00
2013-4-19,54.0,47.4,43.0,44.0,40.4,33.0,93,78,44,30.48,30.12,0,-999,0,0.00
2013-4-20,58.0,47.9,44.0,49.0,43.8,36.0,100,87,45,30.50,30.24,0,-999,0,0.00
2013-4-21,56.0,48.0,45.0,47.0,44.1,40.0,100,87,54,30.24,29.95,0,-999,0,0.00
2013-4-22,58.0,49.7,46.0,53.0,46.7,41.0,100,89,71,29.99,29.80,0,-999,0,0.00
2013-4-23,61.0,51.5,48.0,50.0,46.9,45.0,100,86,56,30.17,29.96,0,-999,0,0.00
2013-4-24,60.0,50.4,46.0,54.0,42.4,-99.9,100,90,75,30.27,29.97,0,-999,0,0.00
2013-4-25,53.0,47.8,44.0,48.0,44.2,38.0,100,88,57,30.24,30.10,0,-999,0,0.00
2013-4-26,49.0,45.0,42.0,40.0,37.8,31.0,87,76,49,30.18,29.89,0,-999,0,0.00
2013-4-27,49.0,45.1,41.0,40.0,36.7,34.0,85,72,58,30.20,30.01,0,-999,0,0.00
2013-4-28,54.0,48.2,45.0,47.0,39.7,33.0,93,73,54,30.14,29.83,0,-999,0,0.00
2013-4-29,54.0,47.2,43.0,43.0,39.6,36.0,85,74,53,30.20,29.92,0,-999,0,0.00
2013-4-30,53.0,46.6,43.0,42.0,39.8,36.0,88,77,63,30.38,30.27,0,-999,0,0.00
2013-5-1,56.0,49.7,46.0,47.0,43.2,36.0,96,79,46,30.32,30.26,0,-999,0,0.00
2013-5-2,61.0,49.3,42.0,47.0,42.4,38.0,96,79,43,30.33,30.13,0,-999,0,0.00
2013-5-3,58.0,51.6,48.0,50.0,47.3,44.0,100,86,59,30.16,29.84,0,-999,0,0.00
2013-5-4,56.0,50.0,47.0,50.0,45.0,38.0,100,84,52,30.00,29.83,0,-999,0,0.00
2013-5-5,64.0,52.6,49.0,53.0,49.5,46.0,100,90,51,30.11,30.00,0,-999,0,0.00
2013-5-6,58.0,50.7,48.0,53.0,48.2,47.0,100,91,70,30.12,29.99,0,-999,0,0.00
2013-5-7,58.0,53.2,48.0,51.0,47.6,45.0,100,82,65,30.05,29.74,0,-999,0,0.00
2013-5-8,63.0,53.6,48.0,53.0,48.2,44.0,100,83,49,29.70,29.33,0,-999,0,0.00
2013-5-9,56.0,49.3,46.0,49.0,44.6,37.0,100,84,63,29.52,29.18,0,-999,0,0.00
2013-5-10,56.0,50.1,47.0,50.0,45.7,36.0,100,85,47,29.77,29.55,0,-999,0,0.00
2013-5-11,50.0,47.5,45.0,48.0,41.9,37.0,100,81,62,29.91,29.69,0,-999,0,0.00
2013-5-12,56.0,50.0,45.0,52.0,46.4,39.0,98,87,77,29.99,29.79,0,-999,0,0.00
2013-5-13,51.0,48.2,46.0,40.0,38.5,34.0,76,69,60,29.86,29.69,0,-999,0,0.00
2013-5-14,55.0,47.2,44.0,42.0,38.6,31.0,85,72,39,29.74,29.36,0,-999,0,0.00
2013-5-15,53.0,47.5,44.0,44.0,40.9,34.0,92,78,49,29.53,29.28,0,-999,0,0.00
2013-5-16,52.0,46.9,44.0,43.0,30.3,-99.9,88,75,59,29.64,29.50,0,-999,0,0.00
2013-5-17,52.0,48.6,44.0,48.0,43.1,-99.9,97,87,76,29.90,29.65,0,-999,0,0.00
2013-5-18,51.0,49.4,48.0,48.0,42.6,37.0,97,78,59,29.93,29.84,0,-999,0,0.00
2013-5-21,52.0,50.3,49.0,47.0,45.3,44.0,89,83,76,30.20,30.14,0,-999,0,0.00
2013-5-22,54.0,50.9,49.0,50.0,43.2,34.0,100,76,45,30.27,30.14,0,-999,0,0.00
2013-5-23,52.0,46.8,45.0,39.0,36.8,31.0,78,68,43,30.21,29.89,0,-999,0,0.00
2013-5-24,55.0,48.7,45.0,43.0,39.4,35.0,81,70,46,30.22,29.92,0,-999,0,0.00
2013-5-25,53.0,50.0,46.0,48.0,42.9,34.0,90,76,47,30.25,30.16,0,-999,0,0.00
2013-5-26,64.0,51.9,48.0,51.0,47.7,44.0,100,86,47,30.19,29.81,0,-999,0,0.00
2013-5-27,57.0,50.8,49.0,50.0,47.9,44.0,100,90,61,29.81,29.44,0,-999,0,0.00
2013-5-28,53.0,49.9,48.0,49.0,47.1,43.0,100,90,79,29.62,29.52,0,-999,0,0.00
2013-5-29,64.0,53.1,49.0,50.0,48.2,43.0,100,84,53,29.93,29.64,0,-999,0,0.00
2013-5-30,67.0,55.1,50.0,51.0,47.2,43.0,96,77,42,30.14,29.93,0,-999,0,0.00
2013-5-31,60.0,53.5,49.0,53.0,49.3,47.0,100,87,65,30.27,30.14,0,-999,0,0.00
2013-6-1,58.0,52.5,49.0,49.0,45.9,39.0,95,78,60,30.38,30.29,0,-999,0,0.00
2013-6-2,61.0,53.5,48.0,52.0,45.8,40.0,97,75,56,30.49,30.40,0,-999,0,0.00
2013-6-3,60.0,55.0,50.0,55.0,50.9,48.0,96,86,74,30.53,30.46,0,-999,0,0.00
2013-6-4,62.0,56.0,51.0,54.0,50.8,48.0,97,82,64,30.49,30.27,0,-999,0,0.00
2013-6-5,59.0,55.8,53.0,53.0,50.7,49.0,96,82,74,30.30,30.13,0,-999,0,0.00
2013-6-6,61.0,55.0,52.0,54.0,51.5,49.0,99,88,76,30.25,30.15,0,-999,0,0.00
2013-6-7,62.0,56.9,52.0,54.0,51.0,48.0,100,81,66,30.31,30.25,0,-999,0,0.00
2013-6-10,61.0,56.5,53.0,54.0,50.7,47.0,94,82,60,29.94,29.85,0,-999,0,0.00
2013-6-11,59.0,54.0,51.0,58.0,53.6,51.0,100,98,90,29.83,29.65,0,-999,0,0.00
2013-6-12,59.0,53.5,52.0,54.0,53.0,51.0,100,98,74,29.72,29.55,0,-999,0,0.00
2013-6-13,61.0,54.0,51.0,54.0,51.7,47.0,100,92,66,29.91,29.55,0,-999,0,0.00
2013-6-14,61.0,54.2,51.0,54.0,50.7,46.0,100,89,56,29.93,29.39,0,-999,0,0.00
2013-6-15,60.0,53.8,50.0,54.0,48.3,44.0,96,82,56,29.68,29.51,0,-999,0,0.00
2013-6-16,58.0,54.3,52.0,54.0,52.0,51.0,100,91,76,29.95,29.75,0,-999,0,0.00
2013-6-17,62.0,55.6,53.0,56.0,54.1,51.0,100,94,71,30.05,29.94,0,-999,0,0.00
2013-6-18,66.0,57.9,52.0,56.0,52.8,45.0,100,83,57,30.04,29.97,0,-999,0,0.00
2013-6-19,68.0,58.4,53.0,54.0,49.8,43.0,100,76,42,30.10,30.00,0,-999,0,0.00